Le nostre stazioni meteo in Italia

Pubblicità
Il mio iltempo24.it
Capo Caccia, Italia (16522): Temperatura & dewpoint: 15.04.2019 09:00:00 - 21.04.2019 09:00:00 (CEST)Capo Caccia, Italia (16522): velocità del vento: 15.04.2019 09:00:00 - 21.04.2019 09:00:00 (CEST)Capo Caccia, Italia (16522): direzione del vento: 15.04.2019 09:00:00 - 21.04.2019 09:00:00 (CEST)Capo Caccia, Italia (16522): reduced air pressure: 15.04.2019 09:00:00 - 21.04.2019 09:00:00 (CEST)Capo Caccia, Italia (16522): visibility: 15.04.2019 09:00:00 - 21.04.2019 09:00:00 (CEST)Capo Caccia, Italia (16522): ore di luce: 15.04.2019 09:00:00 - 21.04.2019 09:00:00 (CEST)
Data & Tempo tt [°C] td [°C] ff [km/h] ff [kn] dd ppp [hPa] vv [km] sd [min]
21.04.2019 09:00:00 - - - - - - - -
21.04.2019 08:00:00 15,0 12,5 42 23 NE 1012,9 20 0
21.04.2019 07:00:00 14,8 11,8 41 22 NE 1012,4 20 0
21.04.2019 06:00:00 14,8 10,8 39 21 ENE 1013,1 20 -
21.04.2019 05:00:00 15,0 8,0 34 18 ENE 1013,5 20 -
21.04.2019 04:00:00 15,0 6,3 28 15 ENE 1014,1 20 -
21.04.2019 03:00:00 15,0 5,8 18 10 ENE 1015,3 20 -
21.04.2019 02:00:00 15,8 10,6 16 9 ENE 1016,9 20 -
21.04.2019 01:00:00 16,0 9,4 28 15 ENE 1016,9 20 -
21.04.2019 00:00:00 16,4 9,4 28 15 ENE 1017,0 20 -
20.04.2019 23:00:00 16,8 9,2 26 14 ENE 1017,0 20 -
20.04.2019 22:00:00 16,8 8,0 21 11 NNE 1017,0 20 -
20.04.2019 21:00:00 17,4 7,5 8 4 NE 1016,8 20 -
20.04.2019 20:00:00 17,8 7,3 13 7 NE 1015,9 20 0
20.04.2019 19:00:00 18,2 8,2 31 17 NE 1015,2 20 0
20.04.2019 18:00:00 19,4 9,9 31 17 NE 1015,9 20 0
20.04.2019 17:00:00 20,6 9,2 35 19 NE 1015,7 20 0
20.04.2019 16:00:00 20,8 9,4 24 13 ENE 1016,8 20 0
20.04.2019 15:00:00 21,0 9,9 24 13 E 1017,7 20 0
20.04.2019 14:00:00 21,8 10,9 26 14 ENE 1017,8 20 24
20.04.2019 13:00:00 19,0 11,8 34 18 NE 1018,9 10 0
20.04.2019 12:00:00 17,8 11,4 29 16 NE 1019,0 15 0
20.04.2019 11:00:00 17,0 11,9 28 15 NE 1019,8 10 0
20.04.2019 10:00:00 15,4 11,0 26 14 NE 1020,5 15 0
20.04.2019 09:00:00 14,8 10,8 22 12 NE 1021,2 20 0
20.04.2019 08:00:00 14,4 10,6 24 13 NE 1021,1 20 0
20.04.2019 07:00:00 14,8 10,8 24 13 NE 1021,1 20 -
20.04.2019 06:00:00 14,6 10,0 26 14 NE 1021,3 20 -
20.04.2019 05:00:00 15,2 9,8 28 15 NE 1021,8 20 -
20.04.2019 04:00:00 15,4 9,7 28 15 NE 1021,8 20 -
20.04.2019 03:00:00 15,6 10,4 26 14 ENE 1022,0 20 -
20.04.2019 02:00:00 16,0 10,5 22 12 NE 1022,3 20 -
20.04.2019 01:00:00 16,6 11,5 24 13 NE 1022,5 20 -
20.04.2019 00:00:00 17,0 11,5 26 14 NE 1022,9 20 -
19.04.2019 23:00:00 17,6 11,4 24 13 ENE 1022,8 20 -
19.04.2019 22:00:00 18,2 12,0 21 11 NE 1022,8 20 -
19.04.2019 21:00:00 18,6 12,6 22 12 NNE 1022,1 20 -
19.04.2019 20:00:00 20,0 13,5 0 0 N 1021,8 20 0
19.04.2019 19:00:00 20,2 12,9 8 4 ONO 1021,7 20 60
19.04.2019 18:00:00 21,0 13,0 13 7 ONO 1021,7 20 60
19.04.2019 17:00:00 21,2 12,4 13 7 O 1021,8 20 60
19.04.2019 16:00:00 21,4 12,0 9 5 OSO 1021,7 20 60
19.04.2019 15:00:00 23,0 12,0 11 6 SSE 1021,7 20 60
19.04.2019 14:00:00 23,0 11,4 5 3 SSE 1021,7 20 60
19.04.2019 13:00:00 22,8 13,3 9 5 NE 1021,7 20 60
19.04.2019 12:00:00 21,0 12,2 21 11 NNE 1021,8 20 60
19.04.2019 11:00:00 18,6 11,7 26 14 NNE 1021,8 20 60
19.04.2019 10:00:00 18,0 11,8 29 16 NNE 1021,1 20 24
19.04.2019 09:00:00 14,8 10,4 26 14 ENE 1021,2 20 0
19.04.2019 08:00:00 14,0 9,7 29 16 ENE 1021,3 20 0
19.04.2019 07:00:00 14,0 10,0 34 18 NE 1020,3 20 -
19.04.2019 06:00:00 14,2 9,6 31 17 ENE 1020,3 20 -
19.04.2019 05:00:00 14,6 8,1 29 16 NE 1020,1 20 -
19.04.2019 04:00:00 14,6 8,1 26 14 NE 1019,7 20 -
19.04.2019 03:00:00 14,4 7,7 26 14 ENE 1019,7 20 -
19.04.2019 02:00:00 14,4 8,6 26 14 NE 1019,7 20 -
19.04.2019 01:00:00 14,8 9,8 22 12 NE 1019,7 20 -
19.04.2019 00:00:00 15,0 9,6 21 11 NE 1019,5 20 -
18.04.2019 23:00:00 15,0 9,4 16 9 ENE 1019,3 20 -
18.04.2019 22:00:00 15,2 8,0 15 8 NE 1019,1 20 -
18.04.2019 21:00:00 16,8 11,7 9 5 NE 1018,3 20 -
18.04.2019 20:00:00 19,0 10,3 2 1 OSO 1017,6 20 0
18.04.2019 19:00:00 20,6 11,3 5 3 OSO 1017,4 20 60
18.04.2019 18:00:00 20,6 11,3 4 2 OSO 1017,4 20 60
18.04.2019 17:00:00 20,4 11,3 5 3 SO 1017,6 20 60
18.04.2019 16:00:00 21,0 12,2 8 4 SSE 1017,7 20 60
18.04.2019 15:00:00 21,0 11,9 4 2 O 1017,8 20 60
18.04.2019 14:00:00 19,2 12,5 9 5 ONO 1017,9 20 60
18.04.2019 13:00:00 20,2 12,2 5 3 O 1018,5 20 60
18.04.2019 12:00:00 19,8 12,1 11 6 NNE 1018,9 20 60
18.04.2019 11:00:00 17,2 11,2 11 6 NE 1019,1 20 60
18.04.2019 10:00:00 16,0 10,7 8 4 NE 1019,1 20 60
18.04.2019 09:00:00 13,8 9,4 9 5 ENE 1019,1 20 60
18.04.2019 08:00:00 13,4 10,9 11 6 NE 1018,4 20 48
18.04.2019 07:00:00 12,2 10,8 8 4 ENE 1018,6 20 0
18.04.2019 06:00:00 12,2 11,3 8 4 NE 1018,7 20 -
18.04.2019 05:00:00 13,6 11,1 8 4 NNE 1019,4 20 -
18.04.2019 04:00:00 13,2 11,6 0 0 N 1019,4 20 -
18.04.2019 03:00:00 13,2 11,6 8 4 E 1020,2 20 -
18.04.2019 02:00:00 13,8 13,0 9 5 ESE 1020,4 20 -
18.04.2019 01:00:00 14,2 13,4 13 7 E 1020,5 20 -
18.04.2019 00:00:00 14,0 12,7 13 7 E 1020,1 20 -
17.04.2019 23:00:00 14,8 13,5 13 7 ENE 1019,8 20 -
17.04.2019 22:00:00 15,0 12,5 16 9 NE 1019,2 20 -
17.04.2019 21:00:00 15,2 9,4 21 11 NE 1019,1 20 -
17.04.2019 20:00:00 16,0 11,4 16 9 NNE 1019,0 20 42
17.04.2019 19:00:00 16,4 13,9 9 5 NNO 1020,2 20 60
17.04.2019 18:00:00 16,2 13,7 9 5 NO 1020,2 20 60
17.04.2019 17:00:00 16,2 13,5 11 6 NO 1019,5 20 -
17.04.2019 16:00:00 16,2 14,4 9 5 NO 1019,8 20 -
17.04.2019 15:00:00 16,4 13,9 13 7 ONO 1020,5 20 60
17.04.2019 14:00:00 16,4 13,9 9 5 OSO 1020,6 20 60
17.04.2019 13:00:00 16,4 13,3 0 0 N 1020,7 20 60
17.04.2019 12:00:00 16,0 12,5 0 0 N 1020,7 20 60
17.04.2019 11:00:00 16,0 10,5 8 4 E 1020,7 20 60
17.04.2019 10:00:00 15,0 10,6 9 5 ENE 1020,3 20 60
17.04.2019 09:00:00 13,2 11,6 9 5 ENE 1020,4 20 60
17.04.2019 08:00:00 12,6 11,8 8 4 ENE 1020,0 20 18
17.04.2019 07:00:00 11,4 9,0 8 4 NO 1019,8 20 0
17.04.2019 06:00:00 11,6 10,0 8 4 E 1019,5 20 -
17.04.2019 05:00:00 12,2 11,9 5 3 ENE 1019,6 20 -
17.04.2019 04:00:00 12,4 12,1 11 6 NE 1020,3 20 -
17.04.2019 03:00:00 12,8 11,0 9 5 NNE 1020,4 20 -
17.04.2019 02:00:00 13,2 10,2 9 5 NNE 1020,5 20 -
17.04.2019 01:00:00 13,8 9,8 8 4 N 1020,4 20 -
17.04.2019 00:00:00 14,0 9,7 5 3 N 1020,4 20 -
16.04.2019 23:00:00 14,0 10,2 5 3 NNE 1020,3 20 -
16.04.2019 22:00:00 14,0 10,6 9 5 NNE 1020,4 20 -
16.04.2019 21:00:00 14,4 11,4 15 8 N 1020,4 20 -
16.04.2019 20:00:00 15,8 9,2 13 7 NNO 1019,2 20 42
16.04.2019 19:00:00 16,2 10,1 11 6 NO 1019,1 20 30
16.04.2019 18:00:00 16,4 9,8 11 6 NO 1019,1 20 60
16.04.2019 17:00:00 16,4 9,6 18 10 NO 1019,1 20 30
16.04.2019 16:00:00 17,4 12,5 16 9 NO 1019,0 20 42
16.04.2019 15:00:00 17,4 12,3 15 8 NO 1019,0 20 60
16.04.2019 14:00:00 18,0 11,3 5 3 NE 1018,9 20 60
16.04.2019 13:00:00 16,4 12,2 9 5 NE 1019,5 20 18
16.04.2019 12:00:00 14,8 12,0 5 3 NNO 1019,4 20 0
16.04.2019 11:00:00 14,4 11,4 9 5 NE 1019,2 20 0
16.04.2019 10:00:00 13,8 12,2 13 7 NE 1019,3 20 0
16.04.2019 09:00:00 13,4 12,3 4 2 NNO 1019,3 15 0
16.04.2019 08:00:00 13,0 11,7 11 6 O 1018,7 20 0
16.04.2019 07:00:00 13,0 11,7 2 1 SSO 1018,1 15 0
16.04.2019 06:00:00 13,4 12,3 5 3 S 1017,3 10 -
16.04.2019 05:00:00 13,6 12,8 13 7 S 1017,4 15 -
16.04.2019 04:00:00 13,8 12,2 5 3 S 1018,1 12 -
16.04.2019 03:00:00 13,6 9,2 16 9 SE 1017,7 20 -
16.04.2019 02:00:00 13,2 9,8 16 9 SE 1018,4 20 -
16.04.2019 01:00:00 13,0 12,2 24 13 SE 1018,3 20 -
16.04.2019 00:00:00 13,2 11,2 15 8 ESE 1018,5 20 -
15.04.2019 23:00:00 13,2 11,1 15 8 ENE 1018,3 20 -
15.04.2019 22:00:00 13,4 10,9 24 13 ENE 1018,3 20 -
15.04.2019 21:00:00 13,2 11,6 31 17 NE 1017,7 20 -
15.04.2019 20:00:00 14,0 11,2 31 17 NE 1017,2 20 0
15.04.2019 19:00:00 14,8 10,8 29 16 NNE 1017,1 20 48
15.04.2019 18:00:00 16,6 10,7 28 15 NNE 1016,8 20 60
15.04.2019 17:00:00 18,4 11,5 24 13 NE 1016,8 20 60
15.04.2019 16:00:00 17,8 11,6 16 9 NNE 1016,8 20 60
15.04.2019 15:00:00 17,0 11,1 8 4 N 1017,0 30 60
15.04.2019 14:00:00 16,8 11,9 5 3 NNO 1017,0 30 60
15.04.2019 13:00:00 16,0 10,1 4 2 ESE 1017,1 20 60
15.04.2019 12:00:00 17,0 9,9 13 7 NE 1017,0 20 60
15.04.2019 11:00:00 15,4 10,0 9 5 NE 1017,0 20 60
15.04.2019 10:00:00 14,2 9,4 15 8 NE 1016,3 30 60
15.04.2019 09:00:00 13,2 11,6 15 8 NE 1016,3 20 60

tt = Temperatura
td = dewpoint
ff = velocità del vento
dd = direzione del vento
ppp = reduced air pressure
vv = visibility
sd = ore di luce

Stazioni seguenti

WeatherPro
AMSI
MeteoEarth